Regional Weather Roundup
Issued by NWS Wakefield, VA

Home | Current Version | Previous Version | Graphics & Text | Print | Product List | Glossary On
Versions: 1 2 3 4 5 6 7 8 9 10 11 12 13 14 15 16 17 18 19 20 21 22 23 24 25 26 27 28
000
ASUS41 KAKQ 221015
RWRAKQ

REGIONAL WEATHER ROUNDUP
NATIONAL WEATHER SERVICE WAKEFIELD VA
600 AM EDT SUN OCT 22 2017

Note: "fair" indicates few or no clouds below 12,000 feet with no
significant weather and/or obstructions to visibility. * = Denotes
station may not report precipitation (e.g., rain,snow,etc.),
thunder or fog.

VAZ042-051-052>054-056-221100-
NORTHERN VIRGINIA

CITY           SKY/WX    TMP DP  RH WIND       PRES   REMARKS
WASH NATIONAL  MOCLDY    54  50  86 NE5       30.38R
DULLES         PTCLDY    47  46  97 CALM      30.36R
FORT BELVOIR   CLEAR     47  46  96 CALM      30.37R
QUANTICO       CLEAR     51  50  96 NW8       30.38R
FREDERICKSBRG* CLEAR     48  48 100 CALM      30.36R
STAFFORD*      CLEAR     43  43 100 CALM      30.41R
WARRENTON      CLEAR     42  39  88 CALM      30.36R
CULPEPER*      CLEAR     46  44  95 CALM      30.38R
MANASSAS*      CLEAR     44  43  96 CALM      30.37R
LEESBURG*      CLEAR     50  50 100 CALM      30.38R
WINCHESTER     PTCLDY    45  43  93 CALM      30.35R
FRONT ROYAL*   SUNNY     46  46 100 MISG      30.35R
LURAY*         SUNNY     46  46 100 CALM      30.36R
$$

VAZ048-049-060>072-079>083-221100-
CENTRAL AND SOUTH CENTRAL VIRGINIA

CITY           SKY/WX    TMP DP  RH WIND       PRES   REMARKS
RICHMOND       PTCLDY    52  50  93 CALM      30.35R
CHESTERFIELD*  NOT AVBL
PETERSBURG*    PTCLDY   N/A N/A N/A CALM      30.36R
HANOVER        PTCLDY    50  49  96 CALM      30.37R
TAPPAHANNOCK*  MOCLDY   N/A N/A N/A CALM      30.36S
QUINTON*       FAIR      50  50 100 CALM      30.36R
CHARLOTTSVILLE CLEAR     52  50  93 CALM      30.36R
GORDONSVILLE*  SUNNY     47  47 100 CALM      30.36R FOG
ORANGE*        CLEAR     46  46 100 CALM      30.36R
LOUISA*        FOG       45  45 100 CALM      30.36R VSB 1/2
BUMPASS*       FAIR      49  49 100 CALM      30.36R
FARMVILLE*     FOG       48  48 100 CALM      30.34S VSB 1
CREWE*           N/A     49  49 100 CALM      30.35R
FORT PICKETT*  FAIR      54  54 100 SW9       30.35S
CHASE CITY*    FAIR      51  51 100 CALM      30.35R
CLARKSVILLE*     N/A     52  52 100 CALM      30.35R
SOUTH HILL*    CLOUDY    50  50 100 CALM      30.41R VSB 1/4
LAWRENCEVILLE*   N/A     52  51  97 CALM      30.35R VSB 1
EMPORIA*       CLOUDY    48  48 100 CALM      30.37R
$$

VAZ088>098-221100-
SOUTHEAST VIRGINIA

CITY           SKY/WX    TMP DP  RH WIND       PRES   REMARKS
NORFOLK        PTCLDY    55  54  96 CALM      30.35R
VIRGINIA BEACH PTCLDY    52  49  89 CALM      30.35R
NORFOLK NAVAL  MOCLDY    53  52  96 CALM      30.37R
WEST POINT*    PTCLDY    47  47 100 CALM      30.38R
SALUDA*        FAIR      50  50 100 CALM      30.36R
NEWPORT NEWS   CLOUDY    50  49  96 CALM      30.36R FOG
LANGLEY AFB    CLOUDY    54  54 100 CALM      30.36R
FORT EUSTIS    CLOUDY    54  51  90 CALM      30.33R
WILLIAMSBURG*  PTCLDY    55  55 100 CALM      30.37R
HR EXEC AP*    NOT AVBL
FRANKLIN*      PTCLDY    49  48  96 CALM      30.36R
US460-WAKEFLD  MOCLDY    50  50 100 CALM      30.35R
$$

VAZ020-022-025-037-045-221100-
WEST CENTRAL AND SOUTHWEST VIRGINIA

CITY           SKY/WX    TMP DP  RH WIND       PRES   REMARKS
STAUNTON*      PTCLDY    43  42  97 CALM      30.38R FOG
WAYNESBORO*    SUNNY     49  49  99 CALM      30.37R
HOT SPRINGS VA CLEAR     54  45  69 CALM      30.40S
LYNCHBURG      PTCLDY    50  50 100 CALM      30.35S FOG
DANVILLE       PTCLDY    47  47 100 CALM      30.35R FOG
SOUTH BOSTON*  FAIR      47  45  95 CALM      30.35R
MARTINSVILLE   PTCLDY    45  44  97 CALM      30.37S
ROANOKE        MOCLDY    50  49  96 CALM      30.37R
BLACKSBURG     CLOUDY    49  49  99 CALM      30.39S
DUBLIN*        FOG       47  47 100 NW3       30.38R VSB 1/2
MARION*        CLEAR     50  46  86 E3        30.37S
HILLSVILLE*    CLOUDY    54  45  70 CALM      30.36R
RICHLANDS*     FAIR      57  35  44 SE3       30.32S
WISE*          PTCLDY    59  46  63 S6        30.32R
ABINGDON*      CLEAR     53  47  82 E5        30.32R
$$

MDZ021>025-VAZ099-100-221100-
SOUTHERN MARYLAND AND THE DELMARVA PENINSULA

CITY           SKY/WX    TMP DP  RH WIND       PRES   REMARKS
PATUXENT RIVER FOG       48  48 100 W3        30.37R VSB 3/4
BAY BRIDGE APT CLEAR     55  54  94 CALM      30.37R FOG
LEONARDTOWN    NOT AVBL
DOVER          PTCLDY    50  50 100 CALM      30.37R
GEORGETOWN     FOG       48  47  96 CALM      30.38R VSB 1/4
EASTON         MOCLDY    50  46  87 CALM      30.41R
CAMBRIDGE      CLEAR     48  46  93 CALM      30.37R FOG
SALISBURY      FOG       47  47 100 CALM      30.37R VSB 1/4
OCEAN CITY     CLOUDY    48  48 100 CALM      30.38R FOG
WALLOPS ISLAND FOG       54  54 100 CALM      30.37R VSB 1/4
ACCOMACK*      FOG       49  48  99 CALM      30.37R VSB 1/2
$$

NCZ012>017-030>032-221100-
NORTH CENTRAL AND EASTERN NORTH CAROLINA

CITY           SKY/WX    TMP DP  RH WIND       PRES   REMARKS
ROANOKE RAPIDS FAIR      50  50 100 CALM      30.34S FOG
RALEIGH        MOCLDY    52  52 100 CALM      30.34S
ELIZABETH CITY FOG       56  56 100 CALM      30.35R VSB 1/4
AHOSKIE*       CLOUDY    50  50 100 CALM      30.35S
EDENTON*       CLOUDY    54  52  93 CALM      30.35R
CURRITUCK*     CLOUDY    54  53  97 CALM      30.36R
KILL DEVIL HLS CLOUDY    66  61  85 CALM      30.32S
MANTEO         CLOUDY   N/A N/A N/A CALM      30.34R
CAPE HATTERAS  PTCLDY    66  60  81 NE5       30.32R
TARBORO*       NOT AVBL
GOLDSBORO      CLOUDY    53  52  94 CALM      30.31S FOG
WASHINGTON     CLOUDY    53  52  97 CALM      30.34S
GREENVILLE     FOG       52  52 100 CALM      30.34S VSB 1/2
NEW BERN       PTCLDY    55  55 100 CALM      30.34R
WILMINGTON     PTCLDY    58  57  97 NE6       30.30S
$$

VAZ048-221100-
ELSEWHERE

CITY           SKY/WX    TMP DP  RH WIND       PRES   REMARKS
HARRISBURG PA  PTCLDY    49  46  90 CALM      30.37R
BALTIMORE      MOCLDY    47  46  97 CALM      30.37R
ANNAPOLIS      CLEAR     56  56 100 CALM      30.37R
ANDREWS AFB    CLEAR     46  44  92 CALM      30.36R
PHILADELPHIA   CLOUDY    53  48  83 CALM      30.38R
HENDERSON NC   PTCLDY    53  50  92 CALM      30.35R
GREENSBORO     PTCLDY    55  52  89 CALM      30.33R
ROCKY MOUNT    CLOUDY    52  52 100 N3        30.34S FOG
$$

VAZ100-221100-
MARINE

STATION/POSITION TIME  TEMP    WIND        PRES    WAVE   SWELL
                       AIR SEA DIR/SP/G            HT/PER HT/PER
                 (UTC) (F)     (DEG/KT/KT) (MB)    (FT/S) (FT/S)
BRANDYWINE LGT   0942   65     190/  3/  3 1028.6R
CAPE MAY NJ      0948   54 65   90/  2/  3 1027.9R
LEWES DE         0948   58 66  150/  1/  2 1028.1R
15NM E FENWICK I 0950   66 67  100/  8/  8 1028.9R   2/ 8   2/ 8
OCEAN-CITY-INLET 0948   61 66   10/  1/  2 1028.9R
WACHAPREAGUE VA  0948   56 66   CALM  /  1 1028.1R
THOMAS POINT MD  1000   62 68  290/  2/  3   N/A
GOOSES REEF MD   1000   64 69  240/  2/  4 1027.6    0
COVE POINT MD    0948   63     200/  3/  5 1028.8R
SOLOMONS ISLAND  0948   59 69  300/  1/  2 1027.8R
BISHOPS HEAD MD  0948   64 66  130/  4/  5 1028.6R
PINEY POINT MD   0936          180/  2/  2   N/A
POTOMAC MD       1000   65 68  240/  2/  4 1027.6    0
CAMBRIDGE MD     0948   55 67              1029.2R
LEWISETTA VA     0948   58 66  240/  2/  2 1028.0R
RAPPAHANNOCK LGT 0948           70/  3/  3 1028.6R
STINGRAY PT      1000   65 69  340/  4/  4 1028.3    0
YORK RVR RNG VA  0948   65     250/  3/  4 1028.5R
YORKTOWN VA      0948   60 69  240/  2/  2 1027.6R
JAMESTOWN VA     1000      69   60/  2/  4   N/A     0
DOMINION TERM VA 0948   64     130/  1/  2 1028.1R
KIPTOPEKE VA     0948      67   90/  3/  4   N/A
CAPE HENRY VA    0948   65     140/  3/  4   N/A
WILLOUBY STN VA  0942   64     310/  2/  2 1027.8R
S CRANEY ISL VA  0948   58      CALM  /  1 1027.7R
CAPE HENRY BUOY  1000      70                N/A     2/ 9
1ST LANDING BUOY 1000   66 68              1027.9    1
CAPE CHARLES BUO 0951      69                N/A     2/ 8
64NM E OF VA BCH 0950   68 68   70/  4/  4 1027.9R   2/ 8   2/ 8
DUCK PIER NC     0948   69 70   70/  6/  7 1027.0R
44056 DUCK FRF   0930      70                N/A     2/ 8
OREGON INLET NC  0942   69 71   50/  5/  8 1026.8R
HATTERAS NC      0948   68 72   60/  4/  4 1026.5R
DIAMOND SHLS NC  0950   75 81  100/  4/  6 1026.4R   3/ 8   3/ 8
CAPE LOOKOUT NC  1000   67      10/  7/  8 1026.1R
$$




USA.gov is the U.S. government's official web portal to all federal, state and local government web resources and services.